JST409 YBCG-YSSY

Flight info

Callsign JST409
Flight time N/A
Altitude 36000
Route APAGI H91 IGDAM H652 BOREE
Aircraft A320/M-SDE3FGHIRWY/LB1

Departure

Time N/A
Airport Gold Coast Airport (YBCG)

Arrival

Time 2026-05-06 03:23
Airport Sydney Kingsford Smith International Airport (YSSY)
Time Latitude Longitude Altitude Speed Heading
2026-05-06 02:51 -30.90312 151.64091 36149 ft 442 kts 212°
2026-05-06 02:52 -30.96047 151.61392 36145 ft 442 kts 212°
2026-05-06 02:52 -31.01721 151.58726 36140 ft 443 kts 212°
2026-05-06 02:53 -31.07426 151.56028 36122 ft 443 kts 212°
2026-05-06 02:53 -31.13143 151.53322 36151 ft 442 kts 212°
2026-05-06 02:54 -31.18845 151.50628 36141 ft 441 kts 212°
2026-05-06 02:54 -31.24544 151.47936 36129 ft 441 kts 212°
2026-05-06 02:55 -31.30232 151.45241 36123 ft 441 kts 212°
2026-05-06 02:55 -31.35924 151.42540 36146 ft 441 kts 213°
2026-05-06 02:56 -31.41614 151.39859 36128 ft 441 kts 212°
2026-05-06 02:56 -31.47365 151.37294 36121 ft 444 kts 211°
2026-05-06 02:57 -31.53149 151.34758 36124 ft 443 kts 211°
2026-05-06 02:57 -31.58912 151.32196 36151 ft 442 kts 211°
2026-05-06 02:58 -31.64653 151.29617 36140 ft 442 kts 211°
2026-05-06 02:58 -31.70353 151.27053 36131 ft 441 kts 211°
2026-05-06 02:59 -31.76087 151.24467 36130 ft 442 kts 211°
2026-05-06 02:59 -31.81826 151.21890 36142 ft 441 kts 211°
2026-05-06 03:00 -31.87569 151.19314 36138 ft 442 kts 211°
2026-05-06 03:00 -31.93316 151.16725 36138 ft 443 kts 211°
2026-05-06 03:01 -31.99077 151.14130 36143 ft 443 kts 211°
2026-05-06 03:01 -32.04837 151.11560 35877 ft 442 kts 210°
2026-05-06 03:01 -32.07709 151.10276 35632 ft 441 kts 210°
2026-05-06 03:02 -32.10539 151.09007 35392 ft 441 kts 210°
2026-05-06 03:02 -32.13410 151.07718 35152 ft 442 kts 210°
2026-05-06 03:02 -32.16285 151.06422 34920 ft 442 kts 210°
2026-05-06 03:02 -32.19158 151.05125 34438 ft 443 kts 210°
2026-05-06 03:03 -32.22053 151.03812 33540 ft 449 kts 210°
2026-05-06 03:03 -32.24971 151.02490 32944 ft 447 kts 209°
2026-05-06 03:03 -32.27857 151.01192 32445 ft 442 kts 209°
2026-05-06 03:03 -32.30725 150.99907 31901 ft 437 kts 208°
2026-05-06 03:04 -32.33569 150.98631 31382 ft 435 kts 208°
2026-05-06 03:04 -32.36384 150.97363 30849 ft 433 kts 208°
2026-05-06 03:04 -32.39192 150.96093 30329 ft 429 kts 208°
2026-05-06 03:04 -32.41965 150.94837 29758 ft 425 kts 208°
2026-05-06 03:05 -32.44707 150.93596 29241 ft 420 kts 208°
2026-05-06 03:05 -32.47444 150.92401 28727 ft 419 kts 203°
2026-05-06 03:05 -32.50281 150.91752 28209 ft 426 kts 191°
2026-05-06 03:05 -32.53303 150.91851 27618 ft 433 kts 178°
2026-05-06 03:06 -32.56243 150.92357 27061 ft 432 kts 176°
2026-05-06 03:06 -32.59211 150.92885 26492 ft 430 kts 176°
2026-05-06 03:06 -32.61864 150.93360 26030 ft 428 kts 176°
2026-05-06 03:06 -32.64800 150.93889 25483 ft 426 kts 176°
2026-05-06 03:07 -32.67713 150.94412 24968 ft 422 kts 175°
2026-05-06 03:07 -32.68825 150.94611 24773 ft 422 kts 175°
2026-05-06 03:07 -32.71744 150.95127 24237 ft 420 kts 175°
2026-05-06 03:07 -32.74632 150.95633 23721 ft 419 kts 175°
2026-05-06 03:08 -32.77506 150.96139 23150 ft 416 kts 174°
2026-05-06 03:08 -32.80354 150.96647 22644 ft 412 kts 174°
2026-05-06 03:08 -32.83178 150.97152 22115 ft 408 kts 174°
2026-05-06 03:08 -32.85938 150.97642 21614 ft 406 kts 174°
2026-05-06 03:09 -32.88757 150.98142 21075 ft 403 kts 174°
2026-05-06 03:09 -32.91494 150.98632 20573 ft 401 kts 174°
2026-05-06 03:09 -32.94234 150.99124 20070 ft 397 kts 174°
2026-05-06 03:09 -32.96951 150.99612 19651 ft 392 kts 174°
2026-05-06 03:10 -32.99624 151.00089 18984 ft 385 kts 174°
2026-05-06 03:10 -33.02241 151.00554 18379 ft 373 kts 174°
2026-05-06 03:10 -33.04762 151.01005 17837 ft 361 kts 174°
2026-05-06 03:10 -33.07239 151.01449 17334 ft 359 kts 174°
2026-05-06 03:11 -33.09702 151.01888 16823 ft 358 kts 174°
2026-05-06 03:11 -33.12160 151.02328 16319 ft 356 kts 174°
2026-05-06 03:11 -33.14608 151.02763 15812 ft 355 kts 173°
2026-05-06 03:11 -33.17052 151.03197 15312 ft 355 kts 174°
2026-05-06 03:12 -33.19491 151.03631 14803 ft 355 kts 173°
2026-05-06 03:12 -33.21931 151.04074 14299 ft 355 kts 173°
2026-05-06 03:12 -33.24372 151.04515 13773 ft 356 kts 173°
2026-05-06 03:12 -33.26816 151.04968 13236 ft 355 kts 173°
2026-05-06 03:13 -33.29249 151.05431 12722 ft 353 kts 173°
2026-05-06 03:13 -33.31670 151.05894 12221 ft 350 kts 173°
2026-05-06 03:13 -33.34066 151.06355 11728 ft 349 kts 173°
2026-05-06 03:13 -33.36465 151.06820 11232 ft 348 kts 172°
2026-05-06 03:14 -33.38859 151.07284 10654 ft 350 kts 172°
2026-05-06 03:14 -33.41238 151.07746 10350 ft 337 kts 172°
2026-05-06 03:14 -33.43494 151.08181 10233 ft 323 kts 172°
2026-05-06 03:14 -33.45665 151.08601 10071 ft 308 kts 172°
2026-05-06 03:15 -33.47752 151.09007 9564 ft 300 kts 172°
2026-05-06 03:15 -33.49802 151.09405 8917 ft 298 kts 172°
2026-05-06 03:15 -33.51820 151.09792 8311 ft 297 kts 172°
2026-05-06 03:15 -33.53885 151.10186 7733 ft 295 kts 172°
2026-05-06 03:16 -33.55903 151.10574 7163 ft 292 kts 172°
2026-05-06 03:16 -33.57875 151.10950 6599 ft 289 kts 171°
2026-05-06 03:16 -33.59862 151.11331 6010 ft 288 kts 171°
2026-05-06 03:16 -33.61833 151.11716 5475 ft 283 kts 171°
2026-05-06 03:17 -33.63726 151.12093 5290 ft 268 kts 171°
2026-05-06 03:17 -33.65533 151.12457 5163 ft 261 kts 170°
2026-05-06 03:17 -33.67301 151.12812 5041 ft 253 kts 170°
2026-05-06 03:17 -33.69008 151.13142 4929 ft 244 kts 171°
2026-05-06 03:18 -33.70655 151.13402 4847 ft 233 kts 173°
2026-05-06 03:18 -33.72259 151.13641 4623 ft 231 kts 173°
2026-05-06 03:18 -33.73838 151.13874 4376 ft 227 kts 173°
2026-05-06 03:18 -33.75401 151.14098 4083 ft 224 kts 176°
2026-05-06 03:19 -33.76926 151.14251 3733 ft 217 kts 172°
2026-05-06 03:19 -33.78418 151.14556 3401 ft 219 kts 168°
2026-05-06 03:19 -33.79893 151.14928 3095 ft 219 kts 167°
2026-05-06 03:19 -33.81390 151.15316 2790 ft 215 kts 167°
2026-05-06 03:20 -33.84176 151.16036 2271 ft 192 kts 167°
2026-05-06 03:20 -33.85435 151.16361 2013 ft 177 kts 167°
2026-05-06 03:20 -33.86566 151.16654 1785 ft 156 kts 167°
2026-05-06 03:21 -33.87585 151.16919 1565 ft 146 kts 167°
2026-05-06 03:21 -33.88561 151.17171 1374 ft 142 kts 167°
2026-05-06 03:21 -33.89520 151.17420 1181 ft 140 kts 166°
2026-05-06 03:21 -33.90467 151.17666 1003 ft 139 kts 167°
2026-05-06 03:22 -33.91404 151.17909 814 ft 137 kts 167°
2026-05-06 03:22 -33.92331 151.18150 639 ft 135 kts 168°
2026-05-06 03:22 -33.93252 151.18389 454 ft 135 kts 168°
2026-05-06 03:22 -33.94170 151.18628 281 ft 135 kts 168°
2026-05-06 03:23 -33.95080 151.18862 84 ft 134 kts 168°
2026-05-06 03:23 -33.95923 151.19078 28 ft 104 kts 168°
2026-05-06 03:23 -33.96453 151.19215 28 ft 42 kts 169°
2026-05-06 03:23 -33.96669 151.19183 30 ft 19 kts 199°
2026-05-06 03:24 -33.96686 151.19077 30 ft 16 kts 330°
2026-05-06 03:24 -33.96568 151.19044 30 ft 19 kts 348°
2026-05-06 03:24 -33.96433 151.19009 30 ft 21 kts 348°
2026-05-06 03:24 -33.96281 151.18970 30 ft 24 kts 348°
2026-05-06 03:25 -33.96111 151.18926 30 ft 26 kts 347°
2026-05-06 03:25 -33.95924 151.18877 30 ft 29 kts 348°
2026-05-06 03:25 -33.95719 151.18824 30 ft 31 kts 348°
2026-05-06 03:25 -33.95499 151.18767 30 ft 34 kts 348°
2026-05-06 03:26 -33.95267 151.18693 30 ft 35 kts 333°
2026-05-06 03:26 -33.95118 151.18514 30 ft 28 kts 289°
2026-05-06 03:26 -33.95142 151.18280 30 ft 30 kts 257°
2026-05-06 03:26 -33.95179 151.18075 30 ft 21 kts 258°
2026-05-06 03:27 -33.95170 151.17971 30 ft 13 kts 311°
2026-05-06 03:27 -33.95068 151.17936 30 ft 18 kts 347°
2026-05-06 03:27 -33.94980 151.17912 30 ft 20 kts 348°
2026-05-06 03:27 -33.94781 151.17861 30 ft 24 kts 348°
2026-05-06 03:28 -33.94670 151.17832 30 ft 26 kts 348°
2026-05-06 03:28 -33.94487 151.17782 30 ft 28 kts 346°
2026-05-06 03:28 -33.94293 151.17723 30 ft 30 kts 346°
2026-05-06 03:28 -33.94078 151.17658 28 ft 32 kts 348°
2026-05-06 03:29 -33.93857 151.17599 29 ft 31 kts 348°
2026-05-06 03:29 -33.93699 151.17561 29 ft 22 kts 360°
2026-05-06 03:29 -33.93647 151.17705 30 ft 22 kts 99°
2026-05-06 03:29 -33.93630 151.17815 30 ft 12 kts 18°
2026-05-06 03:30 -33.93546 151.17833 30 ft 9 kts
2026-05-06 03:30 -33.93530 151.17801 30 ft 3 kts 280°
2026-05-06 03:30 -33.93527 151.17782 30 ft 2 kts 279°
2026-05-06 03:30 -33.93525 151.17773 30 ft 2 kts 279°
2026-05-06 03:31 -33.93524 151.17766 30 ft 0 kts 279°
2026-05-06 03:31 -33.93524 151.17765 30 ft 0 kts 279°